User: anonymous   Login
Location: Unspecified
(0.0000°N, 0.0000°E)
Time: 12:26:19
(UTC+00:00)
Language:

THEOS - Orbit

View from above orbital plane
View from above orbital plane
View from above satellite
View from above satellite

Ground track
Ground track

The orbit data is extracted from the following two-line orbital elements,

1 33396U 08049A   18293.07953627 -.00000043  00000-0  42048-6 0  9999
2 33396  98.7181 359.1182 0001003 101.5021 343.5563 14.20023738521000
Epoch (UTC): 20 October 2018 01:54:31
Eccentricity: 0.0001003
inclination: 98.7181°
perigee height: 824 km
apogee height: 826 km
right ascension of ascending node: 359.1182°
argument of perigee: 101.5021°
revolutions per day: 14.20023738
mean anomaly at epoch: 343.5563°
orbit number at epoch: 52100

The dashed part of the orbit path shows where the satellite is in the earth's shadow,  

DLR